Total_Precipitation_Accumulation
1.40 1.65 1.83 2.10 2.42 2.59 2.82 3.05 3.21 3.27 3.09 2.81 2.53 2.30 2.10 1.97 1.78 1.69 1.61 1.57 1.56 1.63 1.88 1.78 1.88 1.92 1.88 1.86 1.91 1.90 1.76 1.49 1.71 1.74 1.32 0.92 0.73 0.69 0.51 0.49 0.50 0.48 0.51
1.33 1.60 1.71 1.79 2.05 2.32 2.65 2.89 3.13 3.16 2.91 2.58 2.37 2.25 2.16 1.86 1.63 1.62 1.59 1.60 1.68 1.67 1.74 1.77 1.76 1.79 1.79 1.69 1.66 1.74 1.57 1.32 1.50 1.58 1.49 0.96 0.74 0.61 0.47 0.53 0.59 0.61 0.67
1.60 1.75 1.61 1.62 1.75 1.96 2.16 2.34 2.44 2.38 2.21 2.15 2.14 2.12 2.09 1.83 1.76 1.83 1.86 1.84 1.86 1.83 1.82 1.75 1.63 1.51 1.46 1.39 1.41 1.50 1.48 1.33 1.33 1.52 1.68 1.30 0.92 0.82 0.64 0.64 0.65 0.74 0.81
1.35 1.39 1.47 1.52 1.62 1.77 1.96 2.13 2.07 1.89 1.73 1.76 1.90 1.96 1.90 1.86 2.01 2.22 2.12 1.89 1.74 1.61 1.45 1.32 1.30 1.27 1.25 1.15 1.10 1.20 1.24 1.17 1.11 1.24 1.40 1.47 1.43 1.30 0.85 0.61 0.58 0.70 0.80
1.07 1.06 1.17 1.26 1.29 1.45 1.60 1.75 1.82 1.71 1.63 1.61 1.67 1.78 1.78 1.76 1.76 1.75 1.71 1.58 1.41 1.22 1.05 0.98 0.98 0.97 0.96 0.91 0.87 0.89 0.91 0.95 0.95 1.08 1.24 1.34 1.40 1.39 1.25 0.88 0.82 0.83 0.77
0.88 0.91 0.93 0.99 1.06 1.15 1.17 1.17 1.28 1.33 1.35 1.37 1.40 1.43 1.41 1.34 1.26 1.18 1.15 1.07 0.98 0.82 0.70 0.66 0.70 0.75 0.81 0.80 0.77 0.79 0.78 0.84 0.95 0.98 1.09 1.22 1.22 1.22 1.30 1.09 0.98 0.92 0.82
0.64 0.72 0.73 0.75 0.82 0.86 0.85 0.87 0.96 1.08 1.07 1.01 1.03 1.07 1.04 0.98 0.90 0.87 0.84 0.80 0.74 0.63 0.57 0.54 0.58 0.65 0.72 0.69 0.65 0.66 0.75 0.88 0.97 0.95 1.01 1.14 1.17 1.20 1.30 1.26 1.15 1.07 1.02
0.50 0.58 0.65 0.69 0.68 0.66 0.68 0.71 0.77 0.82 0.79 0.74 0.76 0.77 0.79 0.77 0.71 0.70 0.61 0.58 0.58 0.59 0.58 0.53 0.54 0.55 0.60 0.59 0.62 0.62 0.70 0.82 0.90 0.87 1.00 1.11 1.17 1.30 1.42 1.45 1.41 1.27 1.16
0.48 0.48 0.49 0.52 0.51 0.48 0.49 0.54 0.64 0.68 0.71 0.70 0.67 0.63 0.63 0.60 0.55 0.51 0.48 0.45 0.47 0.51 0.57 0.57 0.58 0.59 0.63 0.66 0.73 0.77 0.85 1.00 1.06 1.11 1.22 1.25 1.21 1.26 1.34 1.40 1.45 1.48 1.31
0.25 0.24 0.25 0.25 0.25 0.29 0.36 0.44 0.47 0.48 0.52 0.53 0.55 0.55 0.51 0.46 0.40 0.36 0.36 0.36 0.37 0.42 0.50 0.57 0.58 0.60 0.61 0.65 0.76 0.95 1.10 1.20 1.25 1.28 1.36 1.40 1.35 1.36 1.42 1.42 1.47 1.56 1.47
0.13 0.17 0.18 0.22 0.23 0.27 0.36 0.44 0.45 0.46 0.48 0.47 0.47 0.47 0.45 0.42 0.36 0.31 0.30 0.31 0.34 0.37 0.40 0.47 0.51 0.54 0.57 0.61 0.70 0.83 1.02 1.13 1.16 1.19 1.25 1.27 1.26 1.25 1.23 1.30 1.42 1.54 1.54
0.16 0.17 0.18 0.24 0.29 0.29 0.31 0.36 0.40 0.45 0.54 0.63 0.71 0.72 0.63 0.54 0.45 0.36 0.31 0.30 0.33 0.36 0.37 0.37 0.41 0.42 0.46 0.53 0.63 0.75 0.86 0.95 0.98 0.99 0.99 0.96 0.95 0.98 0.98 1.06 1.14 1.24 1.41
0.13 0.11 0.14 0.21 0.27 0.31 0.33 0.37 0.39 0.43 0.53 0.68 0.92 1.03 0.95 0.81 0.63 0.44 0.30 0.25 0.25 0.28 0.29 0.31 0.36 0.43 0.54 0.63 0.69 0.73 0.76 0.78 0.82 0.88 0.93 0.87 0.83 0.84 0.87 0.90 0.89 0.94 1.11
0.09 0.08 0.11 0.17 0.23 0.30 0.37 0.42 0.45 0.44 0.51 0.63 0.79 0.86 0.78 0.68 0.56 0.38 0.25 0.20 0.20 0.22 0.26 0.32 0.38 0.46 0.54 0.62 0.68 0.69 0.68 0.64 0.60 0.64 0.69 0.72 0.70 0.70 0.75 0.79 0.80 0.83 0.96
0.10 0.09 0.12 0.17 0.20 0.24 0.31 0.32 0.28 0.23 0.28 0.40 0.46 0.52 0.46 0.36 0.31 0.26 0.22 0.20 0.21 0.23 0.27 0.32 0.39 0.43 0.45 0.46 0.43 0.43 0.42 0.41 0.38 0.38 0.41 0.47 0.53 0.56 0.58 0.61 0.73 0.81 0.87
0.08 0.08 0.12 0.17 0.18 0.17 0.17 0.14 0.12 0.13 0.17 0.25 0.30 0.36 0.38 0.31 0.25 0.21 0.17 0.16 0.19 0.23 0.28 0.33 0.39 0.39 0.34 0.38 0.29 0.21 0.21 0.26 0.29 0.33 0.36 0.37 0.39 0.43 0.44 0.45 0.52 0.66 0.75
0.04 0.04 0.07 0.09 0.07 0.06 0.06 0.07 0.08 0.12 0.18 0.23 0.27 0.36 0.39 0.36 0.30 0.23 0.21 0.21 0.23 0.25 0.28 0.29 0.29 0.31 0.35 0.32 0.25 0.16 0.15 0.19 0.23 0.28 0.32 0.29 0.29 0.33 0.36 0.37 0.36 0.39 0.47
0.03 0.02 0.02 0.02 0.02 0.02 0.03 0.06 0.09 0.13 0.18 0.23 0.28 0.33 0.38 0.36 0.33 0.33 0.35 0.36 0.34 0.32 0.31 0.29 0.28 0.33 0.34 0.27 0.22 0.17 0.16 0.21 0.24 0.27 0.29 0.29 0.26 0.26 0.32 0.37 0.37 0.34 0.33
0.04 0.03 0.02 0.02 0.02 0.03 0.04 0.08 0.13 0.16 0.20 0.26 0.33 0.37 0.41 0.41 0.40 0.41 0.42 0.44 0.44 0.39 0.35 0.33 0.35 0.38 0.40 0.31 0.22 0.18 0.20 0.27 0.29 0.31 0.29 0.28 0.27 0.24 0.21 0.28 0.35 0.38 0.38
0.04 0.04 0.03 0.03 0.03 0.06 0.09 0.14 0.17 0.21 0.26 0.31 0.37 0.41 0.45 0.49 0.49 0.52 0.52 0.51 0.53 0.47 0.41 0.37 0.40 0.44 0.50 0.46 0.30 0.25 0.27 0.35 0.37 0.43 0.39 0.30 0.24 0.23 0.21 0.25 0.32 0.35 0.37
0.04 0.04 0.04 0.05 0.09 0.13 0.17 0.21 0.25 0.30 0.28 0.30 0.37 0.47 0.53 0.59 0.63 0.66 0.67 0.66 0.64 0.62 0.58 0.50 0.48 0.53 0.57 0.57 0.39 0.30 0.34 0.44 0.51 0.54 0.46 0.40 0.28 0.24 0.24 0.26 0.32 0.32 0.35
0.06 0.06 0.07 0.08 0.10 0.15 0.21 0.24 0.25 0.26 0.30 0.34 0.42 0.49 0.55 0.53 0.56 0.70 0.74 0.77 0.81 0.76 0.71 0.67 0.59 0.60 0.64 0.59 0.48 0.35 0.33 0.44 0.62 0.71 0.64 0.56 0.43 0.33 0.29 0.27 0.28 0.26 0.26
0.08 0.09 0.10 0.12 0.16 0.20 0.27 0.33 0.34 0.38 0.39 0.41 0.47 0.53 0.54 0.57 0.66 0.75 0.79 0.83 0.89 0.87 0.80 0.79 0.75 0.70 0.73 0.70 0.50 0.40 0.35 0.39 0.57 0.75 0.77 0.64 0.50 0.43 0.37 0.32 0.30 0.30 0.29
0.09 0.10 0.11 0.15 0.19 0.23 0.30 0.40 0.47 0.51 0.54 0.55 0.55 0.58 0.62 0.62 0.66 0.77 0.81 0.86 0.91 0.96 0.93 0.88 0.86 0.85 0.84 0.80 0.68 0.56 0.47 0.48 0.57 0.70 0.76 0.67 0.61 0.54 0.52 0.44 0.37 0.35 0.39
0.10 0.12 0.16 0.22 0.26 0.31 0.37 0.43 0.49 0.56 0.60 0.60 0.61 0.60 0.62 0.68 0.75 0.80 0.84 0.81 0.87 0.85 0.86 0.87 0.89 0.92 0.91 0.77 0.68 0.66 0.60 0.65 0.73 0.80 0.93 0.87 0.83 0.76 0.69 0.63 0.59 0.58 0.57
0.16 0.20 0.22 0.26 0.29 0.35 0.42 0.45 0.53 0.62 0.69 0.72 0.72 0.67 0.64 0.70 0.77 0.82 0.79 0.69 0.63 0.59 0.57 0.59 0.63 0.66 0.62 0.56 0.49 0.49 0.51 0.56 0.66 0.74 0.92 0.95 0.93 0.90 0.86 0.77 0.72 0.70 0.67